Millinocket, ME

2:02 PM EDT on July 27, 2017 (GMT -0400)
Millinocket Municipal

Weather History for KMLT - April, 2013

Change the Weather History Date:

Thursday, April 4, 2013

  Actual Average Record
Temperature  
Mean Temperature 37 °F 35 °F  
Max Temperature 48 °F 45 °F 71 °F (2010)
Min Temperature 26 °F 26 °F 0 °F (1914)
Degree Days  
Heating Degree Days 28 30  
Month to date heating degree days 134 122  
Since 1 July heating degree days 6692 7321  
Cooling Degree Days 0 0  
Month to date cooling degree days 0 0  
Year to date cooling degree days 0 0  
Moisture  
Dew Point 9 °F    
Average Humidity 36    
Maximum Humidity 53    
Minimum Humidity 19    
Precipitation  
Precipitation 0.00 in 0.14 in 1.72 in (1933)
Month to date precipitation 0.31 0.53  
Year to date precipitation 5.24 8.70  
Sea Level Pressure  
Sea Level Pressure 30.00 in    
Wind  
Wind Speed 8 mph (West)    
Max Wind Speed 21 mph    
Max Gust Speed 35 mph    
Visibility 10 miles    
Events      
T = Trace of Precipitation, MM = Missing Value Source: NWS Daily Summary

Daily Weather History Graph

Daily Weather History Graph

Search for Another Location

Airport or City:

Trip Planner

Search our weather history database for the weather conditions in past years. The results will help you decide how hot, cold, wet, or windy it might be!

Date:

Astronomy

Apr. 04, 2013 Rise Set
Actual Time 6:08 AM EDT 7:07 PM EDT
Civil Twilight 5:38 AM EDT 7:37 PM EDT
Nautical Twilight 5:02 AM EDT 8:13 PM EDT
Astronomical Twilight 4:24 AM EDT 8:51 PM EDT
Moon 2:50 AM EDT (4/4) 1:05 PM EDT (4/4)
Length of Visible Light 13h 58m
Length of Day
12h 58m
Waning Crescent, 34% of the Moon is Illuminated
Apr 4
Waning Crescent
Apr 10
New
Apr 18
First Quarter
Apr 25
Full
May 2
Last Quarter

Hourly Weather History & Observations

Time (EDT) Temp. Windchill Dew Point Humidity Pressure Visibility Wind Dir Wind Speed Gust Speed Precip Events Conditions
12:53 AM 28.9 °F 18.6 °F 14.0 °F 54% 29.94 in 10.0 mi West 12.7 mph 29.9 mph N/A   Mostly Cloudy
1:53 AM 28.0 °F 18.6 °F 12.9 °F 53% 29.95 in 10.0 mi WNW 10.4 mph 24.2 mph N/A   Clear
2:53 AM 28.0 °F 17.0 °F 12.0 °F 51% 29.97 in 10.0 mi West 13.8 mph 23.0 mph N/A   Clear
3:53 AM 28.0 °F 16.5 °F 10.9 °F 49% 29.99 in 10.0 mi West 15.0 mph 24.2 mph N/A   Clear
4:53 AM 27.0 °F 16.7 °F 9.0 °F 47% 30.00 in 10.0 mi WNW 11.5 mph 25.3 mph N/A   Clear
5:53 AM 26.1 °F 13.6 °F 7.0 °F 44% 30.01 in 10.0 mi WNW 16.1 mph 31.1 mph N/A   Clear
6:53 AM 26.1 °F 13.6 °F 6.1 °F 43% 30.04 in 10.0 mi WNW 16.1 mph 34.5 mph N/A   Clear
7:53 AM 28.0 °F 17.0 °F 3.9 °F 36% 30.07 in 10.0 mi WNW 13.8 mph 26.5 mph N/A   Clear
8:53 AM 30.0 °F 23.2 °F 5.0 °F 35% 30.09 in 10.0 mi Variable 6.9 mph 23.0 mph N/A   Clear
9:53 AM 33.1 °F 23.4 °F 7.0 °F 34% 30.10 in 10.0 mi West 13.8 mph 21.9 mph N/A   Clear
10:53 AM 35.1 °F 26.9 °F 6.1 °F 30% 30.10 in 10.0 mi West 11.5 mph 21.9 mph N/A   Clear
11:53 AM 37.9 °F 29.6 °F 5.0 °F 25% 30.08 in 10.0 mi West 13.8 mph 20.7 mph N/A   Clear
12:53 PM 41.0 °F 37.1 °F 6.1 °F 24% 30.05 in 10.0 mi Variable 5.8 mph - N/A   Clear
1:53 PM 43.0 °F 36.8 °F 3.9 °F 20% 30.04 in 10.0 mi WSW 11.5 mph 17.3 mph N/A   Clear
2:53 PM 45.0 °F 39.7 °F 6.1 °F 20% 30.01 in 10.0 mi West 10.4 mph 16.1 mph N/A   Clear
3:53 PM 46.0 °F 43.1 °F 8.1 °F 21% 29.98 in 10.0 mi Variable 5.8 mph - N/A   Clear
4:53 PM 46.9 °F - 8.1 °F 21% 29.95 in 10.0 mi WSW 5.8 mph 21.9 mph N/A   Clear
5:53 PM 46.9 °F - 9.0 °F 21% 29.94 in 10.0 mi Variable 3.5 mph - N/A   Clear
6:53 PM 45.0 °F 43.5 °F 9.0 °F 23% 29.93 in 10.0 mi Variable 3.5 mph - N/A   Clear
7:53 PM 42.1 °F 40.2 °F 10.0 °F 27% 29.94 in 10.0 mi Variable 3.5 mph - N/A   Clear
8:53 PM 42.1 °F - 10.0 °F 27% 29.95 in 10.0 mi Calm Calm - N/A   Clear
9:53 PM 42.1 °F 40.2 °F 12.0 °F 29% 29.94 in 10.0 mi Variable 3.5 mph - N/A   Overcast
10:53 PM 39.9 °F 36.7 °F 16.0 °F 38% 29.94 in 10.0 mi Variable 4.6 mph - N/A   Overcast
11:53 PM 37.9 °F - 18.0 °F 45% 29.93 in 10.0 mi Calm Calm - N/A   Clear